Chicago Executive, IL

4:10 AM CDT on June 27, 2017 (GMT -0500)
Chicago Executive

Weather History for KPWK - February, 2013

Change the Weather History Date:

Saturday, February 16, 2013

  Actual Average Record
Temperature  
Mean Temperature 16 °F 28 °F  
Max Temperature 21 °F 35 °F 51 °F (2011)
Min Temperature 11 °F 21 °F -2 °F (2007)
Degree Days  
Heating Degree Days 49 37  
Month to date heating degree days 642 623  
Since 1 July heating degree days 4062 4320  
Cooling Degree Days 0 0  
Month to date cooling degree days 0 0  
Year to date cooling degree days 0 0  
Moisture  
Dew Point 3 °F    
Average Humidity 59    
Maximum Humidity 67    
Minimum Humidity 47    
Precipitation  
Precipitation T in 0.03 in 0.97 in (2006)
Month to date precipitation 0.98 0.53  
Year to date precipitation 4.38 2.16  
Sea Level Pressure  
Sea Level Pressure 30.20 in    
Wind  
Wind Speed 9 mph (NW)    
Max Wind Speed 17 mph    
Max Gust Speed 22 mph    
Visibility 10 miles    
Events      
T = Trace of Precipitation, MM = Missing Value Source: NWS Daily Summary

Daily Weather History Graph

Daily Weather History Graph

Search for Another Location

Airport or City:

Trip Planner

Search our weather history database for the weather conditions in past years. The results will help you decide how hot, cold, wet, or windy it might be!

Date:

Astronomy

Feb. 16, 2013 Rise Set
Actual Time 6:45 AM CST 5:25 PM CST
Civil Twilight 6:17 AM CST 5:54 PM CST
Nautical Twilight 5:44 AM CST 6:27 PM CST
Astronomical Twilight 5:12 AM CST 6:59 PM CST
Moon 9:50 AM CST (2/16) No Moon Set
Length of Visible Light 11h 37m
Length of Day
10h 40m
Waxing Crescent, 39% of the Moon is Illuminated
Feb 16
Waxing Crescent
Feb 17
First Quarter
Feb 25
Full
Mar 4
Last Quarter
Mar 11
New

Hourly Weather History & Observations

Time (CST) Temp. Windchill Dew Point Humidity Pressure Visibility Wind Dir Wind Speed Gust Speed Precip Events Conditions
12:52 AM 18.0 °F 6.9 °F 6.1 °F 60% 30.19 in 10.0 mi NW 9.2 mph - N/A   Clear
1:52 AM 16.0 °F 4.4 °F 5.0 °F 62% 30.19 in 10.0 mi NNW 9.2 mph - N/A   Clear
2:52 AM 15.1 °F 1.8 °F 3.9 °F 61% 30.18 in 10.0 mi NW 11.5 mph - N/A   Clear
3:52 AM 14.0 °F -0.8 °F 3.9 °F 64% 30.18 in 10.0 mi NW 13.8 mph - N/A   Clear
4:52 AM 12.9 °F -0.2 °F 3.9 °F 67% 30.18 in 10.0 mi NW 10.4 mph - N/A   Clear
5:52 AM 12.0 °F 0.5 °F 3.0 °F 67% 30.19 in 10.0 mi NNW 8.1 mph - N/A   Clear
6:52 AM 12.0 °F 1.5 °F 3.0 °F 67% 30.20 in 10.0 mi NW 6.9 mph - N/A   Clear
7:52 AM 14.0 °F 2.0 °F 5.0 °F 67% 30.21 in 10.0 mi NW 9.2 mph - N/A   Clear
8:52 AM 16.0 °F 6.3 °F 3.9 °F 59% 30.21 in 10.0 mi West 6.9 mph - N/A   Mostly Cloudy
9:52 AM 18.0 °F 6.1 °F 3.0 °F 52% 30.21 in 10.0 mi NW 10.4 mph - N/A   Overcast
10:52 AM 19.0 °F 6.1 °F 5.0 °F 54% 30.21 in 10.0 mi NW 12.7 mph - N/A   Overcast
11:52 AM 19.0 °F 4.5 °F 3.0 °F 50% 30.19 in 10.0 mi NW 16.1 mph 19.6 mph N/A   Overcast
12:52 PM 19.9 °F 7.3 °F 6.1 °F 55% 30.17 in 10.0 mi NNW 12.7 mph 19.6 mph N/A   Overcast
1:52 PM 19.0 °F 4.5 °F 5.0 °F 54% 30.17 in 10.0 mi NW 16.1 mph 19.6 mph 0.00 in   Overcast
2:52 PM 19.0 °F 7.5 °F 6.1 °F 57% 30.17 in 10.0 mi NNW 10.4 mph - 0.00 in   Overcast
3:52 PM 18.0 °F 4.8 °F 3.0 °F 52% 30.18 in 10.0 mi NNW 12.7 mph - N/A   Overcast
4:52 PM 17.1 °F 5.8 °F -0.0 °F 47% 30.19 in 10.0 mi NW 9.2 mph - N/A   Mostly Cloudy
5:52 PM 16.0 °F 4.4 °F 1.0 °F 52% 30.21 in 10.0 mi NW 9.2 mph - N/A   Partly Cloudy
6:52 PM 15.1 °F 6.4 °F 1.0 °F 54% 30.23 in 10.0 mi NNW 5.8 mph - N/A   Scattered Clouds
7:52 PM 14.0 °F 5.1 °F 1.9 °F 59% 30.23 in 10.0 mi NW 5.8 mph - N/A   Clear
8:52 PM 12.9 °F 6.9 °F 1.9 °F 62% 30.24 in 10.0 mi NNW 3.5 mph - N/A   Clear
9:52 PM 12.9 °F 5.2 °F 1.9 °F 62% 30.24 in 10.0 mi WNW 4.6 mph - N/A   Clear
10:52 PM 12.0 °F 5.9 °F 1.9 °F 64% 30.22 in 10.0 mi WNW 3.5 mph - N/A   Clear
11:52 PM 12.0 °F - 1.0 °F 61% 30.22 in 10.0 mi Calm Calm - N/A   Clear